Location: Siratepeler Tepesi
(39.1042°N, 32.0781°E)
Time: 05:05:06
(UTC+00:00)

USA 229 DEB - Pass Details

Date: 11 April 2026
Orbit: 844 x 1364 km, 63.4° (Epoch: 10 January)

Event Time Altitude Azimuth Distance (km) Brightness Sun altitude
Rises 16:37:56 0° 227° (SW) 3,432 6.9 -3.3°
Reaches altitude 10° 16:40:22 10° 232° (SW) 2,533 6.3 -3.7°
Maximum altitude 16:46:06 54° 309° (NW) 1,131 4.4 -4.8°
Drops below altitude 10° 16:52:30 10° 26° (NNE) 2,828 5.8 -6.0°
Sets 16:55:22 0° 31° (NNE) 3,867 6.5 -6.5°
